Regional Weather Roundup
Issued by NWS

Home | Current Version | Previous Version | Text Only | Print | Product List | Glossary On
Versions: 1 2 3 4 5 6 7 8 9 10 11 12 13 14 15 16 17 18 19 20 21 22 23 24 25 26 27 28 29 30 31 32 33 34 35 36 37 38 39 40 41 42 43 44 45 46 47 48 49 50
000
ASUS43 KDMX 192106
RWRIA

WEATHER ROUNDUP FOR IOWA
NATIONAL WEATHER SERVICE DES MOINES IA
400 PM CDT WED JUL 19 2017

NOTE: "FAIR" INDICATES FEW OR NO CLOUDS BELOW 12,000 FEET WITH NO
SIGNIFICANT WEATHER AND/OR OBSTRUCTIONS TO VISIBILITY.

* - THESE STATIONS ARE NOT NWS STATIONS...THUS NOT UNDER NWS
QUALITY CONTROL.  THEY ALSO DO NOT REPORT WEATHER SUCH
AS PRECIPITATION OR FOG.

IAZ001>003-012>014-020>022-031>034-043>046-192200-
   NORTHWEST IOWA

CITY           SKY/WX    TMP DP  RH WIND       PRES   REMARKS
CARROLL *      SUNNY     93  75  55 S18G26    29.94F HX 104
CHEROKEE *     CLOUDY    92  73  53 SW18      29.94R HX 101
DENISON *      SUNNY     91  75  59 S17G24    29.95F HX 102
ORANGE CITY *  CLOUDY    91  75  59 SW13      29.93F HX 102
SHELDON *      CLOUDY    88  75  66 S9        29.93F HX  97
SIOUX CITY     MOSUNNY   94  76  55 S16G23    29.91S HX 106
SPENCER        CLOUDY    90  73  57 SW6       29.96R HX  98
STORM LAKE *   CLOUDY    91  73  55 SW16G26   29.96R HX 100
$$

IAZ055>058-069>071-079>083-090>094-192200-
   SOUTHWEST IOWA

CITY           SKY/WX    TMP DP  RH WIND       PRES   REMARKS
ATLANTIC *     SUNNY     93  75  55 S18G24    29.97S HX 104
AUDUBON *      SUNNY     91  75  59 S12G17    29.98F HX 102
CLARINDA *     SUNNY     88  79  74 S15       30.01F HX 102
COUNCIL BLFS * SUNNY     91  79  66 S14G20    29.96S HX 107
CRESTON *      SUNNY     90  75  62 S15G22    30.03F HX 100
HARLAN  *      SUNNY     91  75  59 S17       29.99F HX 102
LAMONI         MOSUNNY   86  76  71 SE13G21   30.05F HX  96
RED OAK *      SUNNY     90  79  70 S14G20    29.98F HX 105
SHENANDOAH *   SUNNY     90  79  70 S13G20    29.98F HX 105
$$

IAZ047>049-059>061-072>074-084-192200-
   CENTRAL IOWA

CITY           SKY/WX    TMP DP  RH WIND       PRES   REMARKS
AMES           SUNNY     93  71  48 S18G25    29.97F HX 100
ANKENY *       SUNNY     93  70  46 S15       29.98F HX  99
BOONE *        SUNNY     93  70  46 S13G20    29.96F HX  99
CHARITON *     SUNNY     93  70  46 S15       30.02F HX  99
DES MOINES     MOSUNNY   96  68  39 S15G23    29.97F HX 101
GRINNELL*      SUNNY     91  73  55 SE12      30.02F HX  98
KNOXVILLE *    SUNNY     93  70  46 S12       29.98F HX  99
MARSHALLTOWN   SUNNY     92  74  55 S17       29.98F HX 101
NEWTON *       SUNNY     90  73  58 S15       29.99F HX  98
PELLA *        SUNNY     93  71  48 S9        30.01F HX 100
PERRY *          N/A     92  69  46 S14G20    29.98S HX  97
$$

IAZ004>006-015-016-023>025-035-036-192200-
   NORTH CENTRAL IOWA

CITY           SKY/WX    TMP DP  RH WIND       PRES   REMARKS
ALGONA *       CLOUDY    88  73  62 S8        29.98R HX  96
CLARION *      MOSUNNY   90  73  58 S15G21    29.95F HX  98
ESTHERVILLE    CLOUDY    72  66  81 NE15G21   29.96F THUNDER
FORT DODGE *   SUNNY     93  72  49 S16G23    29.95S HX 100
MASON CITY     CLOUDY    86  75  69 SE15      29.99F HX  95
FOREST CITY *    N/A     86  73  66 SE10G16   29.98R HX  93
WEBSTER CITY * SUNNY     91  72  52 S15G25    29.93F HX  98
IOWA FALLS *     N/A     91  74  57 SE17G25   29.99F HX  99
$$

IAZ007>011-017>019-026>030-037>042-050>054-066-192200-
   NORTHEAST IOWA

CITY           SKY/WX    TMP DP  RH WIND       PRES   REMARKS
CEDAR RAPIDS   MOSUNNY   90  77  65 S9        30.02F HX 103
CHARLES CITY * CLOUDY    88  79  74 SE14      29.99F HX 102
CLINTON *      SUNNY     89  77  67 VRB5      30.05F HX 101
DECORAH *      CLOUDY    82  75  78 SE9G15    30.02F HX  89
DUBUQUE        PTSUNNY   86  75  69 SE6       30.06F HX  95
MONTICELLO *   PTSUNNY   88  77  70 SE3       30.04S HX 100
OELWEIN *      MOSUNNY   88  79  74 SE12      30.02F HX 102
WATERLOO       MOSUNNY   92  73  53 S16       29.98F HX 100
$$

IAZ064-065-067-068-078-192200-
   EAST CENTRAL IOWA

CITY           SKY/WX    TMP DP  RH WIND       PRES   REMARKS
DAVENPORT      SUNNY     89  75  63 VRB5      30.06F HX  99
IOWA CITY      SUNNY     91  75  59 SE7       30.04F HX 101
MT. PLEASANT * SUNNY     93  69  44 S8G16     30.03F HX  98
MUSCATINE *    SUNNY     91  73  55 SE8G14    30.03F HX 100
QUAD CITIES    SUNNY     92  72  51 S5        30.03F HX  99
$$

IAZ062-063-075>077-085>089-095>099-192200-
   SOUTHEAST IOWA

CITY           SKY/WX    TMP DP  RH WIND       PRES   REMARKS
BURLINGTON     SUNNY     91  76  61 S7        30.04F HX 103
FAIRFIELD *    SUNNY     93  68  43 S6        30.02F HX  97
FORT MADISON * SUNNY     91  73  55 S5        30.05F HX 100
KEOKUK *       SUNNY     93  70  46 SW7G14    30.04F HX  99
OSKALOOSA *      N/A     93  71  48 S7        30.02F HX 100
CENTERVILLE *    N/A     90  73  58 S13       30.07F HX  98
OTTUMWA        SUNNY     96  70  42 S10       30.02F HX 102
WASHINGTON *   SUNNY     91  77  62 SE8       30.04F HX 105
$$

ABBREVIATIONS USED IN REMARKS
   TC - TEMPERATURES IN CELSIUS
  WCI - WIND CHILL INDEX
   HX - HEAT INDEX
  VSB - VISIBILITY
$$





USA.gov is the U.S. government's official web portal to all federal, state and local government web resources and services.